Regional Weather Roundup
Issued by NWS

Home | Current Version | Previous Version | Graphics & Text | Print | Product List | Glossary On
Versions: 1 2 3 4 5 6 7 8 9 10 11 12 13 14 15 16 17 18 19 20 21 22 23 24 25 26 27 28 29 30 31 32 33 34 35 36 37 38 39 40 41 42 43 44 45 46 47 48 49 50
889
ASUS45 KBOU 280107
RWRCO

WEATHER ROUNDUP FOR COLORADO
NATIONAL WEATHER SERVICE DENVER/BOULDER CO
700 PM MDT WED JUL 27 2016

NOTE: "FAIR" INDICATES FEW OR NO CLOUDS BELOW 12000 FEET WITH NO
SIGNIFICANT WEATHER AND/OR OBSTRUCTIONS TO VISIBILITY.

COZ001>005-013-030-031-280200-
...NORTHWEST COLORADO...

CITY           SKY/WX    TMP DP  RH WIND       PRES   REMARKS
CRAIG          FAIR      92  13   5 N8        30.17F
HAYDEN         FAIR      88  27  11 N14       30.21S
MEEKER         FAIR      91  29  11 E6        30.20F
MOUNT WERNER   NOT AVBL
STEAMBOAT SPGS FAIR      87  29  12 NW9       30.23F
WALDEN         FAIR      77  23  13 NW7       30.37S
$$

COZ006>008-011-280200-
...WEST CENTRAL VALLEYS...

CITY           SKY/WX    TMP DP  RH WIND       PRES   REMARKS
GRAND JUNCTION FAIR      98  31   9 W9        30.02F
MONTROSE       FAIR      93  36  13 W9        30.14F
EAGLE          SUNNY     91  28  10 W12       30.22S
RIFLE          FAIR      96  24   7 NW9       30.10F
DELTA          NOT AVBL
NUCLA          NOT AVBL
$$

COZ017>023-064>068-280200-
...SOUTHWEST COLORADO...

CITY           SKY/WX    TMP DP  RH WIND       PRES   REMARKS
DURANGO        FAIR      91  28  10 NW16      30.16F
CORTEZ         FAIR      94  32  11 N10       30.12F
PAGOSA SPRINGS FAIR      87  15   7 N7        30.28S
TELLURIDE      FAIR      76  27  16 NE5       30.47F
WOLF CREEK PAS FAIR      63  27  25 N8        30.71S
$$

COZ009-010-012-014-032>034-037-058>063-280200-
...CENTRAL COLORADO...

CITY           SKY/WX    TMP DP  RH WIND       PRES   REMARKS
ASPEN          FAIR      82  31  15 VRB5      30.32F
BUENA VISTA    FAIR      84  22  10 NW12      30.32S
COPPER MTN     FAIR      64  21  19 NW16G23   30.72S
BERTHOUD PASS  FAIR      55  41  58 NW25G32   30.75S
COTTONWOOD PAS FAIR      79  10   7 CALM      30.50S
GUNNISON       FAIR      84  27  12 W12       30.33F
KREMMLING      FAIR      84   9   6 NW9       30.31S
LEADVILLE      FAIR      73  21  14 N10       30.51S
MONARCH PASS   FAIR      64  19  17 MISG      30.80S
SALIDA         FAIR      85  32  14 SE14G20   30.34S
SUNLIGHT       NOT AVBL
WILKERSON PASS FAIR      63  32  31 SE3       30.67S
$$

COZ069>075-280200-
...SAN LUIS VALLEY/SANGRE DE CRISTO MOUNTAINS...

CITY           SKY/WX    TMP DP  RH WIND       PRES   REMARKS
ALAMOSA        FAIR      85  30  13 CALM      30.25F
LA VETA PASS   FAIR      68  34  28 NE10G20   30.54S
SAGUACHE       FAIR      88  25  10 NW13G20   30.29S
$$

COZ035-036-038>040-280200-
...NORTHERN COLORADO FRONT RANGE...

CITY           SKY/WX    TMP DP  RH WIND       PRES   REMARKS
DENVER INTL AP PTSUNNY   87  49  26 NE25G36   30.13R
DMNS CITY PARK   N/A     87  49  26 NE16      30.11S
AURORA         PTSUNNY   89  44  21 E17       30.14R
FRONT RANGE AP MOSUNNY   88  45  22 NE15      30.15R
ERIE MUNI ARPT FAIR      88  48  24 E17       30.12R
BOULDER MUN AP FAIR      86  50  28 NE10      30.13R
CENTENNIAL     FAIR      89  36  15 NE7       30.15R
BROOMFIELD     PTSUNNY   90  50  25 NE17G23   30.15R
LONGMONT       NOT AVBL
$$

COZ041-046-047-076>085-087-088-280200-
...PIKES PEAK/PALMER DIVIDE AND SOUTHERN FOOTHILLS...

CITY           SKY/WX    TMP DP  RH WIND       PRES   REMARKS
COLO. SPRINGS  FAIR      87  46  24 S12       30.19S
A. F. ACADEMY  FAIR      86  35  16 E6        30.21R
SCHRIEVER AFB  NOT AVBL
ELLICOTT       FAIR     N/A N/A N/A S7        30.18S
FALCON         NOT AVBL
FORT CARSON    FAIR      86  51  30 S7        30.15F
LIMON          LGT RAIN  83  49  30 SE14      30.14R
MONUMENT HILL  FAIR      81  41  24 SE5       30.28R
TRINIDAD       NOT AVBL
$$

COZ042>045-048>051-090-091-280200-
...NORTHEAST COLORADO...

CITY           SKY/WX    TMP DP  RH WIND       PRES   REMARKS
GREELEY ARPT   FAIR      79  59  50 NE5       30.11F
AKRON          FAIR      81  62  52 E7        30.13R
BURLINGTON     FAIR      84  59  42 SE15      30.07S
WRAY           FAIR      84  59  42 E8        30.06R
STERLING       NOT AVBL
HOLYOKE        NOT AVBL
FORT MORGAN    NOT AVBL
$$

COZ086-089-092>099-280200-
...SOUTHEAST COLORADO...

CITY           SKY/WX    TMP DP  RH WIND       PRES   REMARKS
PUEBLO         FAIR      93  46  19 SE9       30.05S
LA JUNTA       FAIR      90  59  35 E28G35    30.04R
LAMAR          FAIR      86  59  39 SE12      30.02R
SPRINGFIELD      N/A     79  59  50 S9        30.08F
$$




USA.gov is the U.S. government's official web portal to all federal, state and local government web resources and services.